Location: Boiro
(42.6475°N, 8.8834°W)
Time: 00:33:10
(UTC+01:00)

Altair - Pass Details

Date: 05 December 2021
Orbit: 1501 x 1683 km, 47.2° (Epoch: 18 January)

Event Time Altitude Azimuth Distance (km) Brightness Sun altitude
Rises 17:52:53 0° 251° (WSW) 4,780 12.2 0.6°
Reaches altitude 10° 17:56:01 10° 253° (WSW) 3,772 11.4 0.1°
Maximum altitude 18:05:34 80° 341° (NNW) 1,557 7.6 -1.4°
Drops below altitude 10° 18:14:51 10° 69° (ENE) 3,666 8.8 -2.9°
Enters shadow 18:16:52 - 70° (ENE) 4,320 9.2 -3.2°
Sets 18:17:51 0° 71° (ENE) 4,640 - -3.4°
